Regional Weather Roundup
Issued by NWS

Home | Current Version | Previous Version | Text Only | Print | Product List | Glossary Off
Versions: 1 2 3 4 5 6 7 8 9 10 11 12 13 14 15 16 17 18 19 20 21 22 23 24 25 26 27 28 29 30 31 32 33 34 35 36 37 38 39 40 41 42 43 44 45 46 47 48 49 50

000
ASUS43 KIND 181959
RWRIN

WEATHER ROUNDUP FOR INDIANA
NATIONAL WEATHER SERVICE INDIANAPOLIS IN
400 PM EDT SAT APR 18 2015

NOTE: "FAIR" INDICATES FEW OR NO CLOUDS BELOW 12,000 FEET WITH NO
SIGNIFICANT WEATHER AND/OR OBSTRUCTIONS TO VISIBILITY.

* - STATION DOES NOT REPORT WEATHER SUCH AS PRECIPITATION OR FOG.

+ - STATION NOT QUALITY CONTROLLED BY THE NATIONAL WEATHER SERVICE.
    USE DATA WITH CAUTION...ESPECIALLY DEWPOINT AND RELATIVE
    HUMIDITY OBSERVATIONS.

INZ001>003-010>013-019-020-182100-
NORTHWEST INDIANA

CITY           SKY/WX    TMP DP  RH WIND       PRES   REMARKS
GARY /AIRPORT/ CLOUDY    48  36  61 N12G23    30.08F
RENSSELAER +   CLOUDY    77  50  38 S8        29.99F

$$

LMZ046-743>745-182100-
SOUTHERN LAKE MICHIGAN

STATION/POSITION TIME  TEMP WIND        PRES
                       AIR  DIR/SP/G
                 (UTC) (F)  (DEG/KT/KT) (MB)
BURNS HARBOR     1900   41  350/  7/ 10 1019.0F
MICHIGAN CITY    1900   44  280/  5/  6   N/A
4NW MICH CITY    1900   41  340/  6/  8   N/A

$$

INZ004-005-014>016-021>024-182100-
NORTH CENTRAL INDIANA

CITY           SKY/WX    TMP DP  RH WIND       PRES   REMARKS
GOSHEN         CLOUDY    76  50  40 E6        30.01F
SOUTH BEND     CLOUDY    78  48  34 NE5       30.01F

$$

INZ006>009-017-018-025>027-182100-
NORTHEAST INDIANA

CITY           SKY/WX    TMP DP  RH WIND       PRES   REMARKS
ANGOLA *+      SUNNY     75  45  33 N6        30.02F
FORT WAYNE     CLOUDY    78  47  33 CALM      30.01F

$$

INZ028-029-035-036-043>045-051>053-182100-
WEST CENTRAL INDIANA

CITY           SKY/WX    TMP DP  RH WIND       PRES   REMARKS
CRAWFORDSVL +  PTSUNNY   74  37  25 SE10      30.00F
GREENCASTLE +  CLOUDY    73  39  29 E12G17    30.00F
LAFAYETTE      MOSUNNY   76  48  37 E7        29.99F
TERRE HAUTE    CLOUDY    74  48  39 E8        29.97F

$$

INZ030>032-037>040-046>048-054>057-064-065-182100-
CENTRAL INDIANA

CITY           SKY/WX    TMP DP  RH WIND       PRES   REMARKS
ANDERSON       MOSUNNY   75  41  29 E6        30.02F
COLUMBUS       PTSUNNY   75  36  23 E7        30.01F
FRANKFORT +    MOSUNNY   76  48  37 CALM      30.03F
INDIANAPOLIS   CLOUDY    75  46  35 SE5       29.99F
-EAGLE CREEK   PTSUNNY   75  46  35 SE9       30.00F
KOKOMO *+      PTSUNNY   77  48  36 SE7       30.00F
MT COMFORT *+  PTSUNNY   77  27  15 E9        30.02F
SHELBYVILLE    CLOUDY    78  46  32 E10       30.00F

$$

INZ033-034-041-042-049-050-058-059-182100-
EAST CENTRAL INDIANA

CITY           SKY/WX    TMP DP  RH WIND       PRES   REMARKS
MUNCIE         PTSUNNY   78  48  34 E10       30.01F

$$

INZ060-061-067>069-081>083-085>088-182100-
SOUTHWEST INDIANA

CITY           SKY/WX    TMP DP  RH WIND       PRES   REMARKS
EVANSVILLE     CLOUDY    80  53  39 NE10G16   29.94F
HUNTINGBURG *+ CLOUDY    79  54  41 SE8       29.95F

$$

INZ062-063-066-070>080-084-089>092-182100-
SOUTH CENTRAL AND SOUTHEAST INDIANA

CITY           SKY/WX    TMP DP  RH WIND       PRES   REMARKS
BLOOMINGTON    CLOUDY    76  42  29 E8        29.98F
MADISON *+     MOSUNNY   79  32  18 SE10      30.01F

$$



USA.gov is the U.S. government's official web portal to all federal, state and local government web resources and services.